Location: Cazarilh
(42.9578°N, 0.5819°E)
Time: 14:16:16
(UTC+00:00)

Cosmos 1452 Rocket - Pass Details

Date: 11 December 2019
Orbit: 767 x 775 km, 74.1° (Epoch: 20 January)

Event Time Altitude Azimuth Distance (km) Brightness Sun altitude
Rises 05:49:38 0° 220° (SW) 3,234 6.5 -15.6°
Reaches altitude 10° 05:52:09 10° 228° (SW) 2,313 5.7 -15.2°
Maximum altitude 05:57:03 39° 297° (WNW) 1,148 3.9 -14.3°
Drops below altitude 10° 06:02:01 10° 6° (N) 2,330 5.9 -13.5°
Sets 06:04:33 0° 14° (NNE) 3,262 6.7 -13.0°
